Regional Weather Roundup
Issued by NWS Nashville, TN

Home | Current Version | Previous Version | Text Only | Print | Product List | Glossary On
Versions: 1 2 3 4 5 6 7 8 9 10 11 12 13 14 15 16 17 18 19 20 21 22 23 24 25 26 27 28 29 30 31 32 33 34 35 36 37 38 39 40 41 42 43 44 45 46 47 48 49 50
000
ASUS44 KOHX 012310
RWROHX
MIDDLE TENNESSEE HOURLY WEATHER ROUNDUP
NATIONAL WEATHER SERVICE NASHVILLE TN
600 PM CDT WED JUL 01 2015

NOTE: "FAIR" INDICATES FEW OR NO CLOUDS BELOW 12,000 FEET WITH
NO SIGNIFICANT WEATHER AND/OR OBSTRUCTIONS TO VISIBILITY.

* THESE REPORTS ARE NOT UNDER NWS QUALITY CONTROL AND MAY NOT
  REPORT WEATHER SUCH AS PRECIPITATION AND FOG.


TNZ005>011-023>034-057-059-062>066-078-080-020000
...NORTHERN MIDDLE TENNESSEE...

CITY           SKY/WX    TMP DP  RH WIND       PRES   REMARKS
CLARKSVILLE    CLOUDY    76  69  79 SW14      29.94R
CROSSVILLE     CLOUDY    68  62  81 VRB3      30.02R
GALLATIN       PTSUNNY   75  32  20 VRB6      29.96S
DICKSON        CLOUDY    72  66  83 S7        29.97F
LIVINGSTON     CLOUDY    71  66  84 SW7       29.97S
NASHVILLE      CLOUDY    72  70  93 S6        29.96R
ROCKWOOD       CLOUDY    68  66  93 SW7       30.03F
SMYRNA         CLOUDY    71  68  90 SW7       29.98R
SPARTA         MOSUNNY   72  68  88 S8        29.97S
$$
TNZ056-058-060-061-075>077-079-093>097-020000
...SOUTHERN MIDDLE TENNESSEE...

CITY           SKY/WX    TMP DP  RH WIND       PRES   REMARKS
COLUMBIA       SUNNY     72  72 100 VRB6      29.96F
LEWISBURG      CLOUDY    70  67  90 CALM      29.99S
MCMINNVILLE    SUNNY     70  70 100 S5        30.00S
SHELBYVILLE    SUNNY     70  68  94 S8        30.00S
TULLAHOMA      SUNNY     66  64  94 S7        30.01F
WINCHESTER     SUNNY     70  66  88 SE6       30.01F
$$


...KEY TO REMARKS...
VSB - VISIBILITY IN MILES
WCI - WIND CHILL INDEX
HX  - HEAT INDEX



USA.gov is the U.S. government's official web portal to all federal, state and local government web resources and services.